Regional Weather Roundup
Issued by NWS

Home | Current Version | Previous Version | Text Only | Print | Product List | Glossary On
Versions: 1 2 3 4 5 6 7 8 9 10 11 12 13 14 15 16 17 18 19 20 21 22 23 24 25 26 27 28 29 30 31 32 33 34 35 36 37 38 39 40 41 42 43 44 45 46 47 48 49 50
000
ASUS45 KCYS 301110
RWRWY

WYOMING REGIONAL WEATHER ROUNDUP
NATIONAL WEATHER SERVICE CHEYENNE WY
500 AM MDT MON MAR 30 2015

NOTE:  "FAIR" INDICATES FEW OR NO CLOUDS BELOW 12,000 FEET
WITH NO SIGNIFICANT WEATHER AND/OR OBSTRUCTIONS TO VISIBILITY.

WYZ001-301200-
YELLOWSTONE NATIONAL PARK

CITY           SKY/WX    TMP DP  RH WIND       PRES   REMARKS
LK YELLOWSTONE   N/A     22  18  85 CALM      30.26R
W YELLOWSTONE  NOT AVBL

$$
WYZ002>013-054>058-071-098>099-301200-
NORTHERN WYOMING

CITY           SKY/WX    TMP DP  RH WIND       PRES   REMARKS
JACKSON        FAIR      25  23  93 N7        30.25R WCI  17
CODY           FAIR      54  18  24 W9G17     30.11R
GREYBULL       FAIR      38  21  50 SE5       30.09S WCI  34
WORLAND        FAIR      33  21  61 CALM      30.10R
SHERIDAN       FAIR      33  26  75 SW6       30.06R WCI  28
BUFFALO        MOCLDY    49  19  30 NW5       30.08R
GILLETTE       FAIR      43  21  41 W15       30.05R
HULETT         FAIR      43  27  52 SW8       30.04S
NEWCASTLE      FAIR      34  21  60 N6        30.05S WCI  29

$$
WYZ014>020-022>026-101>103-301200-
CENTRAL WYOMING

CITY           SKY/WX    TMP DP  RH WIND       PRES   REMARKS
BIG PINEY      FAIR      22  13  68 E3        30.26R
PINEDALE       FAIR      27  21  80 CALM      30.26S
DUBOIS         FAIR      34  16  47 NW14      30.20R WCI  24
LANDER         FAIR      38  17  42 SW6       30.14S WCI  33
RIVERTON       FAIR      44  17  33 W15       30.13S
CASPER         FAIR      35  16  45 W8        30.12S WCI  29
DOUGLAS        FAIR      31  19  61 NW3       30.11R

$$
WYZ021-027>030-104>119-301200-
SOUTHERN WYOMING

CITY           SKY/WX    TMP DP  RH WIND       PRES   REMARKS
EVANSTON       FAIR      37  14  38 S6        30.27S WCI  32
FORT BRIDGER   FAIR      44  10  25 SW10      30.29S
ROCK SPRINGS   FAIR      34  14  43 SW7       30.24F WCI  28
DIXON          FAIR      28  17  66 CALM      30.28S
RAWLINS        FAIR      40  12  32 W10       30.21S WCI  33
SARATOGA       FAIR      30  18  59 MISG      30.25R
LARAMIE        FAIR      36  13  38 W9        30.19R WCI  29
CHEYENNE       FAIR      36  18  48 W9        30.14R WCI  29
TORRINGTON     FAIR      31  21  66 NW7       30.06R WCI  24
PINE BLUFFS    FAIR      28  21  74 S5        30.11R WCI  23

$$


USA.gov is the U.S. government's official web portal to all federal, state and local government web resources and services.